{"data":{"norad_id":66781,"intl_designator":"2025-276DW","name":"LEMUR-2-CELIJO-SB-PK","alt_names":[],"object_type":"PAYLOAD","status":"ACTIVE","operator":null,"country":"US","launch_date":"2025-11-28","launch_site_code":"AFWTR","launch_vehicle":null,"mission":null,"orbit_class":"UNKNOWN","rcs_meters":null,"size_class":null,"mass_kg":null,"dimensions":null,"purposes":["earth_obs"],"wikipedia_slug":null,"has_3d_model":false,"image_url":null,"decayed_at":null,"tle_current":{"epoch":"2026-05-25T03:40:02.081568Z","epoch_age_seconds":62620,"freshness":"FRESH","line1":"1 66781U 25276DW  26145.15280187  .00007280  00000+0  59517-3 0  9996","line2":"2 66781  97.5276 216.6839 0008046 193.7376 166.3630 14.99625607 19177","mean_motion":14.99625607,"eccentricity":0.0008046,"inclination_deg":97.5276,"raan_deg":216.6839,"arg_perigee_deg":193.7376,"mean_anomaly_deg":166.363,"bstar":0.00059517,"rev_number":1917,"period_min":96.023967134085,"perigee_km":562.46331417091,"apogee_km":573.64112186054,"semimajor_km":6946.1892180157,"source":"CELESTRAK","updated_at":"2026-05-25T13:38:13.575294Z"}}}